Change the Weather History Date:

Thursday, December 26, 2013

  Actual Average Record
Temperature  
Mean Temperature 49 °F 52 °F  
Max Temperature 53 °F 61 °F 79 °F (1971)
Min Temperature 45 °F 43 °F 14 °F (1983)
Degree Days  
Heating Degree Days 16 13  
Month to date heating degree days 188 283  
Since 1 July heating degree days 378 463  
Cooling Degree Days 0 0  
Month to date cooling degree days 18 9  
Year to date cooling degree days 2605 2624  
Moisture  
Dew Point 42 °F    
Average Humidity 76    
Maximum Humidity 86    
Minimum Humidity 66    
Precipitation  
Precipitation 0.02 in 0.09 in 0.90 in (1976)
Month to date precipitation 1.33 2.22  
Year to date precipitation 51.50 44.58  
Snow  
Snow 0.00 in - 0.00 in ()
Month to date snowfall 0.0  
Since 1 July snowfall 0.0  
Snow Depth 0.00 in    
Sea Level Pressure  
Sea Level Pressure 30.27 in    
Wind  
Wind Speed 7 mph (North)    
Max Wind Speed 14 mph    
Max Gust Speed 17 mph    
Visibility 10 miles    
Events Rain    
T = Trace of Precipitation, MM = Missing Value Source: NWS Daily Summary

Daily Weather History Graph

Daily Weather History Graph

Search for Another Location

Airport or City:

Trip Planner

Search our weather history database for the weather conditions in past years. The results will help you decide how hot, cold, wet, or windy it might be!

Date:

Astronomy

Dec. 26, 2013 Rise Set
Actual Time 7:22 AM EST 5:30 PM EST
Civil Twilight 6:55 AM EST 5:57 PM EST
Nautical Twilight 6:25 AM EST 6:27 PM EST
Astronomical Twilight 5:55 AM EST 6:56 PM EST
Moon 1:06 AM EST (12/26) 12:49 PM EST (12/26)
Length of Visible Light 11h 01m
Length of Day
10h 08m
Last Quarter, 38% of the Moon is Illuminated
Dec 26
Last Quarter
Jan 1
New
Jan 7
First Quarter
Jan 15
Full
Jan 24
Last Quarter

Hourly Weather History & Observations

Time (EST) Temp. Windchill Dew Point Humidity Pressure Visibility Wind Dir Wind Speed Gust Speed Precip Events Conditions
12:08 AM 48.2 °F - 42.8 °F 82% 30.28 in 10.0 mi North 5.8 mph - N/A   Scattered Clouds
12:53 AM 48.9 °F - 44.1 °F 83% 30.27 in 10.0 mi NNE 10.4 mph - N/A   Clear
1:53 AM 46.9 °F - 43.0 °F 86% 30.25 in 10.0 mi NNE 5.8 mph - N/A   Partly Cloudy
2:53 AM 46.9 °F - 42.1 °F 83% 30.26 in 10.0 mi NNW 4.6 mph - N/A   Overcast
3:53 AM 46.9 °F - 41.0 °F 80% 30.26 in 10.0 mi NNW 6.9 mph - N/A   Mostly Cloudy
4:53 AM 46.9 °F - 42.1 °F 83% 30.22 in 10.0 mi North 6.9 mph - N/A   Clear
5:53 AM 46.0 °F 42.5 °F 41.0 °F 83% 30.24 in 10.0 mi NW 6.9 mph - N/A   Clear
6:53 AM 45.0 °F 40.6 °F 39.9 °F 82% 30.27 in 10.0 mi NNW 8.1 mph - N/A   Mostly Cloudy
7:53 AM 45.0 °F 40.1 °F 39.0 °F 80% 30.28 in 10.0 mi NNW 9.2 mph - N/A   Mostly Cloudy
8:05 AM 44.6 °F 40.7 °F 39.2 °F 81% 30.29 in 10.0 mi NNW 6.9 mph - N/A   Overcast
8:53 AM 45.0 °F 41.2 °F 39.0 °F 80% 30.29 in 10.0 mi NNW 6.9 mph - N/A   Overcast
9:53 AM 46.0 °F 42.5 °F 39.0 °F 76% 30.31 in 10.0 mi North 6.9 mph - N/A   Mostly Cloudy
10:53 AM 46.0 °F 42.5 °F 42.1 °F 86% 30.32 in 6.0 mi NW 6.9 mph - 0.01 in Rain Light Rain
11:53 AM 48.0 °F - 44.1 °F 86% 30.29 in 10.0 mi North 10.4 mph - 0.01 in   Overcast
12:53 PM 51.1 °F - 44.1 °F 77% 30.26 in 10.0 mi North 11.5 mph - N/A   Mostly Cloudy
1:53 PM 52.0 °F - 43.0 °F 71% 30.25 in 10.0 mi North 9.2 mph - N/A   Overcast
2:53 PM 53.1 °F - 43.0 °F 69% 30.22 in 10.0 mi North 11.5 mph - N/A   Overcast
3:53 PM 53.1 °F - 42.1 °F 66% 30.23 in 10.0 mi North 12.7 mph - N/A   Mostly Cloudy
4:37 PM 50.0 °F - 42.8 °F 76% 30.25 in 10.0 mi North 6.9 mph - N/A   Overcast
4:53 PM 50.0 °F - 43.0 °F 77% 30.25 in 10.0 mi North 9.2 mph - N/A   Overcast
5:01 PM 50.0 °F - 42.8 °F 76% 30.25 in 10.0 mi North 9.2 mph - N/A   Overcast
5:24 PM 50.0 °F - 42.8 °F 76% 30.26 in 10.0 mi North 5.8 mph - N/A   Overcast
5:35 PM 48.2 °F - 42.8 °F 82% 30.26 in 10.0 mi NNW 6.9 mph - N/A   Overcast
5:53 PM 48.9 °F - 43.0 °F 80% 30.27 in 10.0 mi North 4.6 mph - N/A   Overcast
6:21 PM 48.2 °F - 42.8 °F 82% 30.27 in 10.0 mi Variable 3.5 mph - N/A   Overcast
6:34 PM 48.2 °F - 42.8 °F 82% 30.28 in 10.0 mi NNW 5.8 mph - N/A   Overcast
6:53 PM 48.9 °F - 43.0 °F 80% 30.28 in 10.0 mi North 5.8 mph - N/A   Overcast
7:53 PM 48.9 °F - 44.1 °F 83% 30.29 in 10.0 mi North 4.6 mph - N/A   Overcast
8:53 PM 50.0 °F - 44.1 °F 80% 30.29 in 10.0 mi North 4.6 mph - N/A   Overcast
9:53 PM 48.9 °F - 45.0 °F 86% 30.28 in 10.0 mi North 4.6 mph - N/A   Overcast
10:53 PM 50.0 °F - 45.0 °F 83% 30.30 in 10.0 mi NNW 3.5 mph - N/A   Overcast
11:53 PM 50.0 °F - 45.0 °F 83% 30.30 in 10.0 mi North 6.9 mph - N/A   Overcast